[[{"header":{"parameterUnit":"m.s-1","parameterCategory":1,"la1":30.2991,"la2":30.254,"lo1":-89.0895,"lo2":-89.0444,"dy":0.0017,"dx":0.0017,"nx":28,"ny":28,"refTime":"2025-08-18T09:00:00:Z","depth":0,"parameterNumber":2,"parameterNumberName":"U-component_of_WINDS"},"data":[0,0,0,0,0,0,0,0,0,0,0,0,0,0,0,0,0,0,0,0,0,0,0,0,0,0,0,0,0,0,0,0,0,0,0,0,0,0,0,0,0,0,0,0,0,0,0,0,0,0,0,0,0,0,0,0,0,0,3.0952,3.0953,0,3.1084,3.1086,3.1087,3.1092,3.109,3.1088,3.1087,3.1218,3.1223,3.1228,0,0,0,0,0,0,0,0,0,0,0,0,0,3.0697,3.0702,3.0952,3.0953,3.0955,3.1084,3.1086,3.1088,3.1092,3.109,3.1088,3.1086,3.1217,3.1223,3.1229,0,0,0,0,0,0,0,0,0,0,0,0,0,3.0817,3.0704,3.0951,3.0973,3.0976,3.1084,3.1086,3.1088,3.1092,3.109,3.1088,3.1085,3.1215,3.1222,3.1229,3.1323,0,0,3.1252,3.1255,0,0,0,0,0,0,0,0,3.081,3.0826,3.0968,3.0972,3.0975,3.1069,3.1045,3.1167,3.1093,3.1048,3.1087,3.1084,3.117,3.1181,3.1211,3.133,3.1335,3.1253,3.1257,3.1261,3.1263,0,0,0,0,0,0,0,3.0802,3.082,3.1004,3.097,3.0975,3.0974,3.0989,3.1068,3.1121,3.1052,3.1052,3.1068,3.1172,3.1204,3.1214,3.1337,3.1253,3.1259,3.1264,3.1267,3.1537,3.154,0,0,0,0,0,0,3.079,3.0813,3.1,3.1008,3.0885,3.0981,3.0997,3.1041,3.112,3.113,3.107,3.1068,3.1192,3.1206,3.1219,3.1333,3.1261,3.1268,3.1272,3.1535,3.1538,3.1541,0,0,0,0,0,0,3.0784,3.0806,3.0994,3.0911,3.0935,3.0988,3.1038,3.1045,3.1078,3.1134,3.1143,3.1094,3.1191,3.1208,3.1297,3.1337,3.1271,3.1278,3.1532,3.1536,3.1539,3.1562,0,0,0,0,0,0,3.0777,3.0804,3.0842,3.0912,3.0939,3.1072,3.104,3.105,3.1091,3.1089,3.1158,3.1167,3.1191,3.1286,3.1305,3.1347,3.1284,3.1528,3.1533,3.1538,3.1558,3.1566,3.1574,0,0,0,0,0,3.0768,3.0842,3.0844,3.0866,3.0987,3.1074,3.109,3.1116,3.1094,3.1131,3.1167,3.1165,3.1331,3.1295,3.1316,3.1361,3.1526,3.1532,3.1538,3.1554,3.1565,3.1573,0,0,0,0,0,0,3.0774,3.0852,3.0854,3.0954,3.1008,3.1075,3.1123,3.1127,3.1187,3.1182,3.1211,3.1227,3.1315,3.1347,3.1306,3.1455,3.1425,3.1436,3.1431,3.1441,3.1449,3.1438,3.129,0,0,0,0,0,3.0787,3.0853,3.0917,3.0998,3.1025,3.1069,3.1108,3.1124,3.118,3.1203,3.1245,3.1299,3.1363,3.1404,3.1466,3.1563,3.1577,3.1604,3.1612,3.1618,3.1626,3.1678,3.169,3.1561,3.1561,3.1561,0,0,3.0814,3.0865,3.0904,3.1001,3.1044,3.111,3.1088,3.1159,3.1207,3.1213,3.1299,3.1333,3.1394,3.1487,3.153,3.1517,3.1665,3.1626,3.1631,3.1635,3.1686,3.1698,3.1709,3.1565,3.1564,3.1564,0,0,3.0897,3.0943,3.1015,3.106,3.1127,3.1155,3.1173,3.124,3.1263,3.135,3.1355,3.1413,3.1523,3.1566,3.1602,3.1701,3.1701,3.1721,3.1761,3.1811,3.1821,3.183,3.1864,3.1876,3.1729,3.1729,3.1729,0,3.0922,3.1023,3.1052,3.1122,3.1164,3.1174,3.1246,3.1287,3.137,3.1397,3.1382,3.1519,3.1561,3.1664,3.1688,3.1718,3.1737,3.1712,3.1818,3.1827,3.1836,3.1868,3.1881,3.1731,3.1731,3.1731,3.173,0,3.1049,3.1118,3.1169,3.125,3.1297,3.1368,3.1406,3.145,3.1462,3.1492,3.158,3.1631,3.1703,3.1729,3.1741,3.1833,3.1822,3.1812,3.1782,3.185,3.188,3.1893,3.1734,3.1733,3.1732,3.1732,0,0,3.1138,3.1235,3.1252,3.1289,3.1363,3.1417,3.1488,3.1559,3.1596,3.1653,3.1711,3.1804,3.1795,3.1836,3.1853,3.1898,3.1971,3.1882,3.1884,3.1895,3.2073,3.2078,3.2092,3.1972,3.1974,3.1976,3.2067,0,3.1227,3.1355,3.1383,3.1492,3.1556,3.1566,3.1628,3.1679,3.1709,3.1766,3.1799,3.1863,3.1848,3.1872,3.1917,3.1952,3.2006,3.1946,3.2024,3.2026,3.2006,3.2109,3.2115,3.2198,3.2079,3.2081,3.2083,0,3.1348,3.1409,3.1525,3.159,3.1618,3.1673,3.174,3.1795,3.1853,3.1872,3.1918,3.193,3.2002,3.1971,3.2069,3.2028,3.2062,3.2084,3.2088,3.2094,3.2057,3.2115,3.2225,3.2237,3.2102,3.2101,3.2099,0,3.1398,3.1509,3.1593,3.1624,3.1703,3.1741,3.1775,3.1831,3.1872,3.1931,3.1957,3.2023,3.2059,3.2109,3.2137,3.2112,3.2233,3.2204,3.2248,3.2248,3.2272,3.2269,3.2386,3.2297,3.2297,3.2297,3.2296,0,3.1494,3.1564,3.1616,3.1667,3.1746,3.1777,3.1853,3.1887,3.1937,3.1993,3.2006,3.2058,3.2095,3.2151,3.2175,3.2251,3.2268,3.2283,3.2288,3.2281,3.2279,3.2302,3.2296,3.23,3.2299,3.2299,3.2298,0,3.1562,3.1601,3.1692,3.176,3.1779,3.1833,3.189,3.1939,3.197,3.2041,3.2059,3.2107,3.2174,3.2209,3.2293,3.2308,3.2394,3.2397,3.2375,3.2376,3.2418,3.2413,3.2552,3.2571,3.2471,3.2472,3.2473,0,3.162,3.1674,3.1748,3.1787,3.1823,3.1886,3.1928,3.1961,3.2004,3.2074,3.2114,3.2183,3.2239,3.2347,3.2387,3.2451,3.2454,3.2498,3.2463,3.2454,3.2452,3.2447,3.2452,3.2504,3.2505,3.2505,3.2506,0,3.1716,3.1733,3.1794,3.1862,3.1912,3.1967,3.202,3.2052,3.2093,3.214,3.221,3.2254,3.2341,3.2408,3.2475,3.2508,3.2513,3.2517,3.253,3.2522,3.2507,3.2513,3.2389,3.2513,3.2512,3.2512,3.2512,3.2511,3.178,3.1828,3.1887,3.1954,3.1999,3.2049,3.2098,3.2135,3.2194,3.2268,3.2284,3.2357,3.2413,3.2503,3.2539,3.2596,3.2586,3.2606,3.261,3.2614,3.2615,3.25,3.2608,3.2608,3.2608,3.2608,3.2608,0,3.1875,3.1914,3.1976,3.2051,3.2104,3.2107,3.2166,3.2209,3.2274,3.2326,3.2382,3.2462,3.2527,3.2573,3.2639,3.2675,3.2679,3.2691,3.2688,3.2695,3.2621,3.2602,3.2687,3.2687,3.2687,3.2687,3.2687,3.2687,3.1931,3.2012,3.2035,3.2138,3.2176,3.2249,3.2283,3.2328,3.237,3.2459,3.2514,3.2544,3.2593,3.2663,3.2722,3.2734,3.2756,3.2768,3.278,3.2709,3.27,3.2692,3.2674,3.2774,3.2774,3.2849,3.2849,3.285]},{"header":{"parameterUnit":"m.s-1","parameterCategory":1,"la1":30.2991,"la2":30.254,"lo1":-89.0895,"lo2":-89.0444,"dy":0.0017,"dx":0.0017,"nx":28,"ny":28,"refTime":"2025-08-18T09:00:00:Z","depth":0,"parameterNumber":3,"parameterNumberName":"V-component_of_WINDS"},"data":[0,0,0,0,0,0,0,0,0,0,0,0,0,0,0,0,0,0,0,0,0,0,0,0,0,0,0,0,0,0,0,0,0,0,0,0,0,0,0,0,0,0,0,0,0,0,0,0,0,0,0,0,0,0,0,0,0,0,1.9017,1.9018,0,1.9052,1.9053,1.9053,1.9026,1.9025,1.9023,1.9022,1.9058,1.906,1.9062,0,0,0,0,0,0,0,0,0,0,0,0,0,1.8925,1.8926,1.9017,1.9018,1.9018,1.9052,1.9053,1.9053,1.9026,1.9024,1.9023,1.9022,1.9058,1.906,1.9062,0,0,0,0,0,0,0,0,0,0,0,0,0,1.8963,1.8927,1.9017,1.9009,1.9008,1.9052,1.9053,1.9053,1.9026,1.9024,1.9023,1.9021,1.9057,1.906,1.9063,1.9117,0,0,1.9072,1.9074,0,0,0,0,0,0,0,0,1.8961,1.8966,1.9009,1.9009,1.9009,1.9033,1.9033,1.9075,1.9027,1.9019,1.9022,1.902,1.9051,1.9055,1.9065,1.9119,1.912,1.9072,1.9074,1.9076,1.9077,0,0,0,0,0,0,0,1.8958,1.8965,1.9031,1.901,1.901,1.9002,1.9006,1.9041,1.9045,1.902,1.9018,1.9022,1.9051,1.9062,1.9066,1.9121,1.9072,1.9075,1.9077,1.9078,1.9217,1.9219,0,0,0,0,0,0,1.8956,1.8963,1.903,1.9032,1.898,1.9005,1.9009,1.9027,1.9044,1.9045,1.9024,1.9021,1.9058,1.9062,1.9067,1.9129,1.9076,1.9079,1.908,1.9215,1.9217,1.9219,0,0,0,0,0,0,1.8954,1.8963,1.9028,1.8997,1.9005,1.9009,1.9029,1.9028,1.904,1.9047,1.9048,1.9035,1.9057,1.9063,1.9104,1.913,1.908,1.9083,1.9213,1.9216,1.9218,1.9256,0,0,0,0,0,0,1.8952,1.8962,1.8984,1.8997,1.9006,1.9066,1.9031,1.903,1.9045,1.9042,1.9058,1.9059,1.9056,1.9099,1.9107,1.9133,1.9085,1.921,1.9214,1.9217,1.9252,1.9259,1.9266,0,0,0,0,0,1.8949,1.8994,1.8985,1.8993,1.9033,1.9068,1.9073,1.9068,1.9048,1.9068,1.9072,1.9058,1.9126,1.9104,1.9112,1.914,1.9209,1.9213,1.9217,1.9249,1.9258,1.9265,0,0,0,0,0,0,1.8984,1.8996,1.8986,1.9037,1.9051,1.9063,1.9089,1.9078,1.9099,1.9095,1.9088,1.9092,1.9135,1.9141,1.9117,1.9191,1.9164,1.917,1.9186,1.9194,1.9201,1.9198,1.9088,0,0,0,0,0,1.8998,1.9025,1.9033,1.9077,1.9085,1.9086,1.9101,1.9095,1.911,1.9116,1.9124,1.9138,1.9162,1.9179,1.9202,1.9253,1.9255,1.9276,1.9282,1.9288,1.9293,1.9318,1.9327,1.9233,1.9233,1.9233,0,0,1.9027,1.9036,1.9054,1.9084,1.9095,1.9122,1.9091,1.9122,1.9142,1.9121,1.916,1.9165,1.9181,1.9227,1.9247,1.9234,1.9319,1.9293,1.9297,1.93,1.9323,1.9332,1.934,1.9236,1.9235,1.9235,0,0,1.9092,1.9103,1.9139,1.915,1.9165,1.9165,1.9174,1.9186,1.9189,1.9228,1.9212,1.9234,1.9277,1.9288,1.9299,1.9365,1.9352,1.9373,1.9408,1.9432,1.9439,1.9446,1.9467,1.9475,1.9378,1.9378,1.9378,0,1.9126,1.9167,1.916,1.919,1.9203,1.9184,1.922,1.923,1.9253,1.9262,1.9246,1.9297,1.9307,1.9353,1.9369,1.9379,1.9387,1.9371,1.9439,1.9445,1.9451,1.9472,1.948,1.938,1.938,1.938,1.9379,0,1.9206,1.9234,1.9261,1.9282,1.9298,1.9331,1.9328,1.9345,1.9337,1.9338,1.9376,1.9386,1.941,1.942,1.9414,1.9465,1.9456,1.944,1.9412,1.9463,1.9481,1.9489,1.9383,1.9383,1.9382,1.9381,0,0,1.9298,1.9311,1.9321,1.9329,1.9343,1.9364,1.9395,1.9417,1.9431,1.9446,1.9471,1.9506,1.949,1.9502,1.9497,1.9518,1.9566,1.9499,1.9499,1.951,1.9621,1.9632,1.9641,1.9558,1.9559,1.956,1.9619,0,1.9363,1.9417,1.9409,1.9461,1.9485,1.9465,1.9492,1.9503,1.9504,1.9524,1.9525,1.9549,1.9527,1.9534,1.9554,1.9556,1.9589,1.9552,1.958,1.9581,1.9576,1.9652,1.9665,1.9719,1.9626,1.9628,1.9629,0,1.9447,1.9463,1.9517,1.9523,1.9533,1.9558,1.9575,1.9595,1.9606,1.9605,1.9617,1.9607,1.9636,1.9608,1.9647,1.9622,1.9633,1.9635,1.9637,1.9639,1.9607,1.9654,1.9737,1.9745,1.9641,1.964,1.9639,0,1.9506,1.9541,1.9577,1.9584,1.9594,1.9611,1.9616,1.9625,1.9637,1.9652,1.966,1.9679,1.9689,1.9703,1.9697,1.9678,1.9737,1.9709,1.9736,1.9736,1.975,1.9749,1.9834,1.9758,1.9758,1.9758,1.9758,0,1.9579,1.9612,1.9603,1.9625,1.966,1.9651,1.9686,1.9688,1.9696,1.9717,1.9701,1.9721,1.9713,1.9732,1.9728,1.976,1.9765,1.9764,1.9763,1.9765,1.9765,1.9772,1.9767,1.976,1.976,1.9759,1.9759,0,1.9652,1.9647,1.9684,1.9689,1.9691,1.9716,1.972,1.974,1.9738,1.9765,1.977,1.9768,1.979,1.9785,1.9809,1.9806,1.9846,1.984,1.9842,1.984,1.9867,1.9864,1.9959,1.997,1.9888,1.9889,1.9889,0,1.9699,1.9723,1.9729,1.9741,1.9747,1.9768,1.9779,1.977,1.9782,1.9794,1.9812,1.9832,1.9847,1.9882,1.9882,1.99,1.9893,1.9925,1.9896,1.9897,1.9892,1.989,1.9891,1.9931,1.9932,1.9933,1.9933,0,1.9781,1.9777,1.9794,1.9809,1.9823,1.9835,1.9846,1.9857,1.9848,1.9862,1.9883,1.9895,1.9918,1.9937,1.9952,1.9956,1.9943,1.9942,1.9949,1.9952,1.9951,1.995,1.9856,1.994,1.994,1.9939,1.9939,1.9938,1.9841,1.9861,1.9867,1.9885,1.9892,1.9901,1.9919,1.9918,1.9935,1.9952,1.9945,1.9969,1.9976,1.9995,2.0001,2.0018,2.0006,2.0017,2.0019,2.0022,2.0024,1.9949,2.0021,2.0021,2.0021,2.0021,2.0021,0,1.9922,1.9924,1.9941,1.9954,1.9968,1.9953,1.9963,1.9976,1.9996,2.0004,2.0018,2.004,2.0058,2.0058,2.0074,2.0088,2.0082,2.0092,2.0091,2.0092,2.0035,2.0027,2.0097,2.0097,2.0097,2.0097,2.0097,2.0097,1.9965,1.9996,1.9991,2.0024,2.0026,2.0048,2.0054,2.0062,2.0068,2.0093,2.0107,2.0107,2.0111,2.0126,2.0141,2.0141,2.0147,2.0159,2.0156,2.0104,2.0096,2.0089,2.0081,2.0161,2.0161,2.0211,2.0212,2.0212]}]]